FENGYUN 1C DEB, 31672

Orbit data source: Space-Track

FENGYUN 1C DEB, 31672 is space debris in SSO originally from a launch on Mon, 10 May 1999 UTC launched from the Taiyaun Space Center, China (TSC). Fengyun 1C debris stems from the Chinese weather satellite Fengyun-1C, which was intentionally destroyed by a Chinese anti-satellite missile in 2007. This event dramatically increased the amount of space debris, with thousands of trackable fragments posing hazards to satellites and human spaceflight. The Fengyun 1C debris cloud has become a focal point in discussions about space sustainability and the need for international regulations to prevent the creation of new debris.

Loading next visibility...
Identifier
31672, 1999-025CCE
Orbit
SSO
Country
Flag of CNCN / PRC
Related business
Manufacturer
Unknown
Mission
Spacecraft
Bus & Motor
Unknown
Mass
Unknown
Launch date (UTC)
1999-05-10 (27 years ago)
Launch vehicle
Unknown
Launch site
Taiyaun Space Center, China (TSC)
Object type
Payload
Rocket body
Debris
Shape & HBR
Unknown shape, 0.1 m
Radar Cross Section
Small (<0.1 m²)

Expand to show TLE details & history
Last TLE update: 2 days ago

TLE from 2 days ago
0 FENGYUN 1C DEB
1 31672U 99025CCE 26166.30124190  .00004860  00000-0  10953-2 0  9993
2 31672  98.9515  11.2639 0103233 144.3209 216.4943 14.53600948675507
Epoch: 2026-06-15T07:13Z
TLE epoch observation values (Epoch: 2026-06-15T07:13:47.300Z)
Latitude
0.00003°
Longitude
-0.77278°
Altitude
775.998 km
Speed
7.435 km/s
True Right ascension
00h 45m 03s
True Declination
0° 00' 00"
Sunlit
Object was in daylight at epoch
Visualization orbit readout
Latitude
Unknown
Longitude
Unknown
Altitude
Unknown
Speed
Unknown
Apparent Right ascension
Unknown
Apparent Declination
Unknown
Sunlit
N/A
Visualization observer readout
Local Sidereal Time
03:52:56
Azimuth
Unknown
Elevation
Unknown
Doppler factor
Unknown
Orbital elements
Apogee altitude
784.221 km
Perigee altitude
637.853 km
Semi-major axis
7,089.174 km
Eccentricity
0.01032
Inclination
98.9515°
RAAN
11.2639°
Arg. of periapsis
144.3209°
True anomaly
215.79798°
Mean anomaly
216.4943°
Eccentric anomaly
216.14542°
Mean motion
3.63622 °/min
Orbital period
99 mins
BSTAR
0.0010953
Loading maneuver chart data...
Computing Atmospheric mass density...

Documentation

Showing up to 5 results
|